EW8832 Weather Reports


Display with metric or nautical units.
time (UTC)temp
F
wind
direction
speed
MPH
gust
MPH
rain 1hr
in
rain 24hr
in
rain mn
in
humidity
%
barometer
mb
20260509040032 59 237 3.0 7.0 0.00 0.10 0.10 87 1008.1
20260509034529 59 232 2.0 5.0 0.00 0.10 0.10 86 1007.8
20260509033028 60 232 0.0 6.0 0.00 0.10 0.10 85 1007.6
20260509031528 60 209 3.0 6.0 0.00 0.10 0.10 85 1007.2
20260509030036 60 178 4.0 10.0 0.00 0.10 0.10 85 1006.9
20260509024526 61 168 7.0 12.0 0.02 0.10 0.10 84 1006.8
20260509023027 62 192 8.0 19.0 0.05 0.10 0.10 82 1006.6
20260509021526 62 175 13.0 20.0 0.08 0.10 0.10 85 1006.4
20260509020026 62 175 11.0 28.0 0.09 0.10 0.10 82 1006.9
20260509014524 62 156 15.0 25.0 0.08 0.08 0.08 83 1007.5
20260509013042 64 292 1.0 5.0 0.06 0.06 0.06 78 1009.2
20260509011523 66 338 2.0 12.0 0.02 0.02 0.02 75 1008.4
20260509010025 67 325 1.0 4.0 0.01 0.01 0.01 70 1007.8
20260509004538 69 319 2.0 9.0 0.00 0.00 0.00 66 1008.2
20260509003024 71 350 2.0 5.0 0.00 0.00 0.00 58 1007.8
20260509001521 71 306 0.0 1.0 0.00 0.00 0.00 56 1007.1
20260509000021 72 306 0.0 1.0 0.00 0.00 0.00 56 1006.7
20260508234520 73 306 0.0 4.0 0.00 0.00 0.00 53 1006.4
20260508233020 74 320 1.0 5.0 0.00 0.00 0.00 50 1006.6
20260508231521 75 285 3.0 8.0 0.00 0.00 0.00 45 1006.5
20260508230036 76 229 4.0 7.0 0.00 0.00 0.00 47 1006.3
20260508224519 76 269 3.0 8.0 0.00 0.00 0.00 48 1006.3
20260508223022 76 221 3.0 12.0 0.00 0.00 0.00 49 1006.2
20260508221517 76 236 4.0 14.0 0.00 0.00 0.00 49 1006.4
20260508220017 76 187 4.0 16.0 0.00 0.00 0.00 49 1006.4
20260508214516 76 188 5.0 14.0 0.00 0.00 0.00 48 1006.4
20260508213013 76 235 6.0 14.0 0.00 0.00 0.00 47 1006.7
20260508211516 76 198 5.0 10.0 0.00 0.00 0.00 47 1006.7
20260508210009 76 285 4.0 10.0 0.00 0.00 0.00 48 1006.8
20260508204508 75 221 5.0 11.0 0.00 0.00 0.00 49 1007.1
20260508203005 75 188 6.0 12.0 0.00 0.00 0.00 49 1007.3
20260508201504 75 209 5.0 13.0 0.00 0.00 0.00 48 1007.5
20260508200002 75 174 6.0 13.0 0.00 0.00 0.00 51 1007.7
20260508194558 75 175 8.0 14.0 0.00 0.00 0.00 54 1008.0
20260508193104 74 200 5.0 11.0 0.00 0.00 0.00 51 1008.2
20260508184613 73 244 7.0 13.0 0.00 0.00 0.00 48 1008.7
20260508183048 73 200 5.0 10.0 0.00 0.00 0.00 50 1009.0
20260508180041 72 261 5.0 15.0 0.00 0.00 0.00 48 1009.6
20260508174538 71 234 6.0 16.0 0.00 0.00 0.00 48 1010.0
20260508173037 71 211 4.0 11.0 0.00 0.00 0.00 50 1010.2
20260508170037 70 238 6.0 13.0 0.00 0.00 0.00 52 1010.9
20260508164531 70 288 4.0 14.0 0.00 0.00 0.00 56 1011.3
20260508163025 69 219 6.0 13.0 0.00 0.00 0.00 56 1011.2
20260508160023 68 207 7.0 12.0 0.00 0.00 0.00 58 1011.9
20260508154521 67 167 7.0 18.0 0.00 0.00 0.00 57 1012.0
20260508153018 67 214 5.0 15.0 0.00 0.00 0.00 64 1012.1
20260508150019 65 205 6.0 13.0 0.00 0.00 0.00 65 1012.4
20260508144517 64 202 7.0 20.0 0.00 0.00 0.00 68 1012.6
20260508143008 63 215 9.0 17.0 0.00 0.00 0.00 70 1012.7
20260508140003 60 197 4.0 10.0 0.00 0.00 0.00 77 1012.8
20260508134601 60 249 5.0 9.0 0.00 0.00 0.00 79 1013.0
20260508133116 59 200 4.0 7.0 0.00 0.00 0.00 81 1012.9
20260508130047 56 234 2.0 6.0 0.00 0.00 0.00 82 1013.1
20260508124543 55 189 2.0 5.0 0.00 0.00 0.00 82 1013.1
20260508123056 54 215 1.0 5.0 0.00 0.00 0.00 81 1012.9
20260508120036 53 235 2.0 4.0 0.00 0.00 0.00 80 1013.0
20260508114535 52 200 2.0 7.0 0.00 0.00 0.00 80 1012.9
20260508113039 52 217 2.0 6.0 0.00 0.00 0.00 79 1012.6
20260508110045 51 187 3.0 9.0 0.00 0.00 0.00 80 1012.3
20260508104526 50 189 4.0 9.0 0.00 0.00 0.00 83 1012.2
20260508103025 47 204 1.0 7.0 0.00 0.00 0.00 89 1012.2
20260508100023 46 210 1.0 2.0 0.00 0.00 0.00 90 1012.2
20260508094523 46 210 1.0 3.0 0.00 0.00 0.00 90 1012.0
20260508093022 46 210 1.0 2.0 0.00 0.00 0.00 90 1011.9
20260508090024 46 210 1.0 2.0 0.00 0.00 0.00 89 1012.0
20260508084515 47 210 0.0 2.0 0.00 0.00 0.00 89 1012.1
20260508083012 47 210 1.0 2.0 0.00 0.00 0.00 88 1012.2
20260508080013 47 210 0.0 1.0 0.00 0.00 0.00 88 1012.4
20260508074517 47 210 0.0 3.0 0.00 0.00 0.00 88 1012.5
20260508073008 47 210 2.0 3.0 0.00 0.00 0.00 87 1012.6
20260508070005 48 210 1.0 3.0 0.00 0.00 0.00 87 1013.0
20260508064502 48 210 1.0 3.0 0.00 0.00 0.00 87 1013.2
20260508063102 48 210 1.0 3.0 0.00 0.00 0.00 86 1013.3
20260508060058 49 211 0.0 3.0 0.00 0.00 0.00 84 1013.5
20260508054555 49 211 0.0 2.0 0.00 0.00 0.00 85 1013.6
20260508053115 50 211 0.0 2.0 0.00 0.00 0.00 84 1013.6
20260508050054 50 211 0.0 2.0 0.00 0.00 0.00 85 1013.6
20260508044556 50 211 0.0 2.0 0.00 0.00 0.00 83 1013.7
20260508043058 51 211 0.0 2.0 0.00 0.00 0.00 82 1013.9